{"data":{"norad_id":67680,"intl_designator":"2026-023G","name":"COSMOS 2606","alt_names":[],"object_type":"PAYLOAD","status":"ACTIVE","operator":null,"country":"CIS","launch_date":"2026-02-05","launch_site_code":"PLMSC","launch_vehicle":null,"mission":null,"orbit_class":"UNKNOWN","rcs_meters":null,"size_class":null,"mass_kg":null,"dimensions":null,"purposes":[],"wikipedia_slug":null,"has_3d_model":false,"image_url":null,"decayed_at":null,"tle_current":{"epoch":"2026-09-19T09:17:16.001664Z","epoch_age_seconds":185378,"freshness":"STALE","line1":"1 67680U 26023G   26262.38699076  .00002988  00000+0  11460-3 0  9997","line2":"2 67680  96.6038 315.4255 0021830 141.3512 218.9296 15.26922206 34365","mean_motion":15.26922206,"eccentricity":0.002183,"inclination_deg":96.6038,"raan_deg":315.4255,"arg_perigee_deg":141.3512,"mean_anomaly_deg":218.9296,"bstar":0.0001146,"rev_number":3436,"period_min":94.307358576721,"perigee_km":470.03720440487,"apogee_km":500.00174557468,"semimajor_km":6863.1564749898,"source":"CELESTRAK","updated_at":"2026-09-21T09:00:16.777778Z"}}}